Weather in Ozhigovo

Russia / Vladimir Oblast     55°49′42″N   42°06′06″E
temp.,
°C
wind,
m/s
gust,
m/s
humid.,
%
clouds,
%
prec.,
mm/h
press.,
hPa
HPBL,
m
4 december, sat
sat400:00+3ssw61495100 2.4 999951
03:00+2wsw61097100 5.3 999579
06:000wsw61288100 1.1 1000841
09:00−1wsw613795 1.1 1002758
12:00−1wsw71176100 0.1 10041160
15:00−2wsw71280100 0.1 10051313
18:00−2wsw6107695 0.1 1007958
21:00−4w697769 0.1 1009862
5 december, sun
sun500:00−4w5878100 0.0 1011778
03:00−5w477882 0.0 1013636
06:00−5w357651 0.0 1014512
09:00−5wsw2375100 0.0 1016350
12:00−4se1187100 0.1 1017276
15:00−3e2292100 0.7 1017208
18:00−4ene239592 0.1 1018150
21:00−4ene239393 0.2 1019170
6 december, mon
mon600:00−3e249294 0.1 1020191
03:00−3e239583 0.1 1021114
06:00−4se129799 0.1 102167
09:00−3sse2394100 0.1 1022105
12:00−2s2484100 0.0 1023227
15:00−2se2484100 0.0 1023115
18:00−2se3683100 0.0 1024200
21:00−2se3882100 0.0 1024273
7 december, tue
tue700:00−2se4977100 0.0 1024323
03:00−2se51175100 0.0 1023442
06:00−2se61171100 0.0 1022573
09:00−2se61383100 0.4 1020660
12:00−2se71695100 2.6 1018688
15:00−1sse61496100 5.8 1016713
18:000sse51296100 1.3 1014565
21:00+1sse51298100 2.3 1013470
8 december, wed
wed800:00+1s51299100 2.1 1012457
03:00+2s61599100 5.2 1011486
06:00+2ssw61497100 1.9 1011505
09:00+2ssw41098100 2.4 1012393
12:00+1sw25100100 0.3 1014159
15:000nnw3499100 0.6 1015240
18:00−2n3597100 1.1 1017234
21:00−3n4594100 2.5 1018246